This is the latest recevied weather packets stored in our database for station/object DO6DD-13. If no packets are shown the sender has not sent any weather packets the latest 10 day(s).
| Time | Temp. | Humidity | Pressure | Rain* | Wind** | Luminosity | Snow |
|---|---|---|---|---|---|---|---|
| 1777487434 | 13.89° C | 37% | 1028.5 hPa | - | - | 10 W/m² | - |
| 1777486824 | 14.44° C | 36% | 1028.5 hPa | - | - | 12 W/m² | - |
| 1777486224 | 14.44° C | 36% | 1028.3 hPa | - | - | 14 W/m² | - |
| 1777485623 | 14.44° C | 36% | 1028.2 hPa | - | - | 16 W/m² | - |
| 1777485022 | 15° C | 36% | 1028.2 hPa | - | - | 18 W/m² | - |
| 1777484422 | 15° C | 35% | 1028.2 hPa | - | - | 20 W/m² | - |
| 1777483822 | 15° C | 34% | 1028.2 hPa | - | - | 22 W/m² | - |
| 1777483221 | 15° C | 34% | 1028.1 hPa | - | - | 24 W/m² | - |
| 1777482620 | 15.56° C | 35% | 1028.1 hPa | - | - | 26 W/m² | - |
| 1777482020 | 15.56° C | 34% | 1028.1 hPa | - | - | 30 W/m² | - |
| 1777481419 | 15.56° C | 35% | 1028.1 hPa | - | - | 34 W/m² | - |
| 1777480819 | 15.56° C | 34% | 1028.1 hPa | - | - | 38 W/m² | - |
| 1777480218 | 15.56° C | 34% | 1028.1 hPa | - | - | 42 W/m² | - |
| 1777479618 | 15.56° C | 34% | 1028.1 hPa | - | - | 46 W/m² | - |
| 1777479018 | 15.56° C | 34% | 1028.2 hPa | - | - | 50 W/m² | - |
| 1777478417 | 16.11° C | 34% | 1028.1 hPa | - | - | 54 W/m² | - |
| 1777477816 | 16.11° C | 34% | 1028 hPa | - | - | 58 W/m² | - |
| 1777477216 | 16.11° C | 34% | 1028.1 hPa | - | - | 60 W/m² | - |
| 1777476616 | 16.11° C | 34% | 1028.1 hPa | - | - | 64 W/m² | - |
| 1777476015 | 16.11° C | 34% | 1028.1 hPa | - | - | 252 W/m² | - |
| 1777475425 | 16.67° C | 33% | 1028.2 hPa | - | - | 496 W/m² | - |
| 1777474824 | 16.67° C | 33% | 1028.3 hPa | - | - | 524 W/m² | - |
| 1777474224 | 16.67° C | 34% | 1028.3 hPa | - | - | 544 W/m² | - |
| 1777473623 | 16.67° C | 33% | 1028.4 hPa | - | - | 566 W/m² | - |
| 1777473033 | 17.22° C | 34% | 1028.4 hPa | - | - | 588 W/m² | - |
* Rain since midnight (hover to see other rain measurements)
** Current wind speed in m/s (hover to see current wind gust speed)